Weather History for Freeport, IL

Change the Weather History Date:

Wednesday, April 17, 2013

  Actual Average Record
Temperature  
Mean Temperature 44 °F -  
Max Temperature 46 °F 58 °F 86 °F (1977)
Min Temperature 41 °F 36 °F 23 °F (1983)
Degree Days  
Heating Degree Days 22    
Moisture  
Dew Point 39 °F    
Average Humidity 85    
Maximum Humidity 95    
Minimum Humidity 67    
Precipitation  
Precipitation 1.34 in - - ()
Sea Level Pressure  
Sea Level Pressure 30.10 in    
Wind  
Wind Speed 12 mph (ENE)    
Max Wind Speed 24 mph    
Max Gust Speed 30 mph    
Visibility 7 miles    
Events Rain , Thunderstorm    
Averages and records for this station are not official NWS values.
T = Trace of Precipitation, MM = Missing Value Source: NWS Daily Summary

Daily Weather History Graph

Daily Weather History Graph

Search for Another Location

Airport:

Trip Planner

Search our weather history database for the weather conditions in past years. The results will help you decide how hot, cold, wet, or windy it might be!

Date:

Astronomy

Apr. 17, 2013 Rise Set
Actual Time 6:13 AM CDT 7:42 PM CDT
Civil Twilight 5:44 AM CDT 8:11 PM CDT
Nautical Twilight 5:09 AM CDT 8:47 PM CDT
Astronomical Twilight 4:31 AM CDT 9:24 PM CDT
Moon 11:25 AM CDT (4/17) 1:22 AM CDT (4/17)
Length of Visible Light 14h 27m
Length of Day
13h 28m
Waxing Crescent, 42% of the Moon is Illuminated
Apr 17
Waxing Crescent
Apr 18
First Quarter
Apr 25
Full
May 2
Last Quarter
May 9
New

Hourly Weather History & Observations

Time (CDT) Temp. Windchill Dew Point Humidity Pressure Visibility Wind Dir Wind Speed Gust Speed Precip Events Conditions
12:15 AM 43.9 °F 37.9 °F 36.5 °F 75% 30.28 in 10.0 mi ENE 11.5 mph - N/A   Overcast
12:35 AM 43.7 °F 38.6 °F 36.3 °F 75% 30.29 in 10.0 mi ENE 9.2 mph - N/A   Overcast
12:55 AM 43.7 °F 37.7 °F 35.6 °F 73% 30.29 in 10.0 mi ENE 11.5 mph - N/A   Overcast
1:15 AM 43.7 °F 37.7 °F 35.1 °F 72% 30.29 in 10.0 mi ENE 11.5 mph - N/A   Overcast
1:35 AM 43.7 °F 39.1 °F 35.6 °F 73% 30.30 in 10.0 mi NE 8.1 mph - N/A   Overcast
1:55 AM 43.7 °F 37.7 °F 35.6 °F 73% 30.29 in 10.0 mi NE 11.5 mph - N/A   Overcast
2:15 AM 43.7 °F 38.1 °F 36.1 °F 75% 30.29 in 10.0 mi NE 10.4 mph - N/A   Overcast
2:35 AM 43.7 °F 38.1 °F 35.8 °F 74% 30.29 in 10.0 mi NE 10.4 mph - N/A   Overcast
2:55 AM 44.6 °F 39.7 °F 35.6 °F 71% 30.29 in 10.0 mi ENE 9.2 mph - N/A   Overcast
3:15 AM 43.7 °F 38.1 °F 36.1 °F 75% 30.28 in 10.0 mi ENE 10.4 mph - N/A   Overcast
3:35 AM 43.7 °F 38.6 °F 36.1 °F 75% 30.28 in 10.0 mi NE 9.2 mph - N/A   Overcast
3:55 AM 44.6 °F 39.7 °F 37.4 °F 76% 30.27 in 10.0 mi NE 9.2 mph - N/A   Overcast
4:15 AM 43.7 °F 37.7 °F 35.6 °F 73% 30.26 in 10.0 mi NE 11.5 mph - N/A   Overcast
4:35 AM 43.7 °F 37.7 °F 35.8 °F 74% 30.23 in 10.0 mi NE 11.5 mph - N/A   Overcast
4:55 AM 43.7 °F 37.7 °F 34.9 °F 71% 30.22 in 10.0 mi NE 11.5 mph 18.4 mph N/A   Overcast
5:15 AM 43.7 °F 36.9 °F 33.3 °F 67% 30.23 in 10.0 mi ENE 13.8 mph - N/A   Overcast
5:35 AM 43.7 °F 38.1 °F 33.8 °F 68% 30.23 in 10.0 mi ENE 10.4 mph - N/A   Overcast
5:55 AM 43.7 °F 37.7 °F 33.8 °F 68% 30.22 in 10.0 mi ENE 11.5 mph - N/A   Overcast
6:15 AM 43.7 °F 36.6 °F 34.2 °F 69% 30.23 in 10.0 mi ENE 15.0 mph - N/A Thunderstorm Overcast
6:35 AM 43.7 °F 39.7 °F 34.2 °F 69% 30.28 in 10.0 mi NE 6.9 mph - N/A Thunderstorm Overcast
6:55 AM 43.7 °F 38.1 °F 34.9 °F 71% 30.26 in 10.0 mi ENE 10.4 mph - N/A Thunderstorm Unknown
7:15 AM 42.1 °F 38.4 °F 35.8 °F 78% 30.27 in 10.0 mi NE 5.8 mph - 0.01 in Rain , Thunderstorm Light Thunderstorms and Rain
7:35 AM 41.2 °F 34.1 °F 36.3 °F 83% 30.24 in 7.0 mi NE 12.7 mph 17.3 mph 0.03 in Rain Rain
7:55 AM 41.2 °F 35.5 °F 36.9 °F 85% 30.26 in 5.0 mi ENE 9.2 mph - 0.07 in Rain Rain
8:15 AM 41.2 °F 31.1 °F 37.4 °F 86% 30.12 in 5.0 mi NE 24.2 mph 29.9 mph 0.05 in Rain , Thunderstorm Light Thunderstorms and Rain
8:35 AM 41.2 °F 33.7 °F 36.7 °F 84% 30.21 in 10.0 mi East 13.8 mph - 0.05 in   Mostly Cloudy
8:55 AM 41.2 °F 32.7 °F 36.5 °F 83% 30.20 in 10.0 mi East 17.3 mph - 0.05 in   Mostly Cloudy
9:15 AM 41.2 °F 35.0 °F 36.7 °F 84% 30.19 in 10.0 mi NE 10.4 mph - N/A Thunderstorm Overcast
9:35 AM 41.2 °F 33.4 °F 37.2 °F 86% 30.18 in 5.0 mi ENE 15.0 mph 20.7 mph 0.03 in Rain , Thunderstorm Thunderstorms and Rain
9:55 AM 41.2 °F 33.0 °F 37.6 °F 87% 30.17 in 10.0 mi NE 16.1 mph - 0.06 in Rain , Thunderstorm Light Thunderstorms and Rain
10:15 AM 41.2 °F 34.5 °F 37.4 °F 86% 30.19 in 10.0 mi NE 11.5 mph - N/A Thunderstorm Mostly Cloudy
10:35 AM 41.5 °F 34.6 °F 38.1 °F 88% 30.17 in 7.0 mi NE 12.7 mph - 0.01 in Rain , Thunderstorm Light Thunderstorms and Rain
10:55 AM 41.0 °F 33.1 °F 39.2 °F 93% 30.16 in 10.0 mi NE 15.0 mph - N/A Thunderstorm Thunderstorm
11:15 AM 41.4 °F 34.3 °F 38.5 °F 89% 30.12 in 10.0 mi ENE 12.7 mph - N/A Rain , Thunderstorm Light Thunderstorms and Rain
11:35 AM 42.4 °F 35.7 °F 39.2 °F 88% 30.14 in 10.0 mi North 12.7 mph - N/A   Mostly Cloudy
11:55 AM 42.1 °F 32.8 °F 39.2 °F 90% 30.09 in 5.0 mi ENE 21.9 mph 25.3 mph 0.03 in Rain , Thunderstorm Light Thunderstorms and Rain
12:15 PM 43.0 °F 36.0 °F 40.3 °F 90% 30.12 in 10.0 mi ENE 13.8 mph 24.2 mph N/A Rain , Thunderstorm Light Thunderstorms and Rain
12:35 PM 42.4 °F 33.3 °F 39.7 °F 90% 30.06 in 7.0 mi NE 21.9 mph - 0.01 in Rain , Thunderstorm Light Thunderstorms and Rain
12:55 PM 42.3 °F 36.3 °F 39.6 °F 90% 30.16 in 2.5 mi NW 10.4 mph - 0.09 in Rain , Thunderstorm Heavy Thunderstorms and Rain
1:15 PM 41.2 °F 34.5 °F 39.2 °F 93% 30.13 in 0.5 mi North 11.5 mph - 0.32 in Thunderstorm Unknown
1:35 PM 41.2 °F 34.5 °F 39.2 °F 93% 30.14 in 4.0 mi North 11.5 mph 16.1 mph 0.40 in Rain , Thunderstorm Thunderstorms and Rain
1:55 PM 41.2 °F 34.1 °F 39.2 °F 93% 30.14 in 3.0 mi NE 12.7 mph - 0.46 in Rain , Thunderstorm Rain
2:15 PM 41.2 °F 35.5 °F 39.2 °F 93% 30.14 in 2.0 mi NE 9.2 mph - 0.10 in Rain , Thunderstorm Thunderstorms and Rain
2:35 PM 41.2 °F 32.4 °F 39.2 °F 93% 30.06 in 2.0 mi NE 18.4 mph - 0.08 in Rain , Thunderstorm Thunderstorms and Rain
2:55 PM 41.0 °F 31.1 °F 39.2 °F 93% 30.03 in 5.0 mi ENE 23.0 mph 27.6 mph N/A Rain Light Rain
3:15 PM 41.2 °F 32.4 °F 39.2 °F 93% 30.03 in 7.0 mi ENE 18.4 mph 23.0 mph N/A Rain Light Rain
3:55 PM 41.2 °F 36.6 °F 39.2 °F 93% 30.06 in 7.0 mi East 6.9 mph - 0.02 in Rain , Thunderstorm Rain
4:15 PM 41.5 °F 31.6 °F 39.6 °F 93% 29.98 in 5.0 mi East 24.2 mph - 0.02 in Rain Light Rain
4:35 PM 43.3 °F 36.8 °F 41.4 °F 93% 30.01 in 5.0 mi East 12.7 mph - 0.06 in Rain Rain
4:55 PM 43.7 °F 36.9 °F 41.9 °F 93% 29.99 in 7.0 mi East 13.8 mph 21.9 mph 0.08 in Rain Light Rain
5:15 PM 43.7 °F 36.9 °F 41.9 °F 93% 29.98 in 10.0 mi East 13.8 mph 23.0 mph N/A Rain Light Rain
5:35 PM 43.7 °F 36.6 °F 41.9 °F 93% 29.96 in 7.0 mi East 15.0 mph - 0.02 in Rain Rain
5:55 PM 44.8 °F 38.7 °F 42.8 °F 93% 29.97 in 10.0 mi NE 12.7 mph 19.6 mph 0.03 in Rain Light Rain
6:15 PM 44.6 °F 37.4 °F 42.6 °F 93% 29.92 in 7.0 mi NE 16.1 mph - 0.02 in Rain Light Rain
6:35 PM 44.6 °F 38.1 °F 42.8 °F 93% 29.92 in 7.0 mi ENE 13.8 mph - 0.02 in Rain Light Rain
6:55 PM 45.0 °F 40.1 °F 43.0 °F 93% 29.93 in 7.0 mi East 9.2 mph - 0.03 in Rain Rain
7:15 PM 45.0 °F 43.5 °F 43.0 °F 93% 29.97 in 5.0 mi NNW 3.5 mph - 0.03 in Rain Rain
7:35 PM 44.6 °F 40.2 °F 42.8 °F 93% 29.94 in 4.0 mi ENE 8.1 mph - 0.07 in Rain Rain
7:55 PM 44.6 °F 39.2 °F 42.8 °F 93% 29.92 in 5.0 mi East 10.4 mph - 0.09 in Rain Light Rain
8:15 PM 45.0 °F 38.9 °F 43.2 °F 93% 29.89 in 5.0 mi ENE 12.7 mph - 0.01 in Rain Light Rain
8:35 PM 45.0 °F 39.7 °F 43.2 °F 93% 29.89 in 7.0 mi East 10.4 mph - 0.03 in Rain Light Rain
8:55 PM 45.0 °F 38.5 °F 43.2 °F 93% 29.87 in 4.0 mi East 13.8 mph - 0.07 in Rain Rain
9:15 PM 45.0 °F 38.5 °F 43.2 °F 93% 29.85 in 5.0 mi ENE 13.8 mph - 0.02 in Rain Light Rain
9:35 PM 45.0 °F 40.1 °F 43.2 °F 93% 29.86 in 5.0 mi East 9.2 mph - 0.03 in Rain Light Rain
9:55 PM 45.0 °F 39.3 °F 43.3 °F 94% 29.85 in 5.0 mi ENE 11.5 mph - 0.04 in Rain Light Rain
10:15 PM 45.0 °F 40.1 °F 43.5 °F 95% 29.85 in 5.0 mi East 9.2 mph - N/A Rain Light Rain
10:35 PM 45.5 °F 38.1 °F 43.7 °F 93% 29.82 in 4.0 mi East 18.4 mph - 0.02 in Rain Light Rain
10:55 PM 46.2 °F 39.8 °F 44.4 °F 93% 29.80 in 4.0 mi East 15.0 mph - 0.06 in Rain Light Rain
11:35 PM 46.4 °F 42.4 °F 44.6 °F 93% 29.81 in 3.0 mi NNE 8.1 mph - 0.03 in Rain Light Rain
11:55 PM 46.4 °F 42.9 °F 44.6 °F 93% 29.83 in 3.0 mi NNW 6.9 mph - 0.05 in Rain Rain